TimeMDT,TemperatureF,Dew PointF,Humidity,Sea Level PressureIn,VisibilityMPH,Wind Direction,Wind SpeedMPH,Gust SpeedMPH,PrecipitationIn,Events,Conditions,WindDirDegrees,DateUTC
12:53 AM,45.0,19.9,37,29.85,10.0,West,3.5,-,N/A,,Partly Cloudy,260,2013-03-16 06:53:00
1:53 AM,46.0,21.9,39,29.83,10.0,Calm,Calm,-,N/A,,Clear,0,2013-03-16 07:53:00
2:53 AM,43.0,21.9,43,29.82,10.0,Calm,Calm,-,N/A,,Clear,0,2013-03-16 08:53:00
3:53 AM,46.9,24.1,41,29.79,10.0,Calm,Calm,-,N/A,,Partly Cloudy,0,2013-03-16 09:53:00
4:53 AM,48.0,25.0,41,29.78,10.0,WSW,5.8,-,N/A,,Overcast,240,2013-03-16 10:53:00
5:53 AM,50.0,27.0,41,29.79,10.0,SW,3.5,-,N/A,,Overcast,220,2013-03-16 11:53:00
6:53 AM,51.1,28.9,43,29.79,10.0,SE,8.1,-,0.00,,Overcast,140,2013-03-16 12:53:00
7:53 AM,54.0,28.0,37,29.79,10.0,SW,6.9,-,N/A,,Scattered Clouds,220,2013-03-16 13:53:00
8:53 AM,55.0,30.0,38,29.82,10.0,East,4.6,-,N/A,,Partly Cloudy,90,2013-03-16 14:53:00
9:53 AM,55.9,28.9,36,29.84,10.0,North,5.8,-,N/A,,Clear,350,2013-03-16 15:53:00
10:53 AM,59.0,27.0,29,29.84,10.0,SW,3.5,-,N/A,,Clear,230,2013-03-16 16:53:00
11:53 AM,64.0,27.0,25,29.82,10.0,WNW,4.6,-,N/A,,Clear,300,2013-03-16 17:53:00
12:53 PM,66.9,21.0,17,29.81,10.0,WNW,9.2,-,N/A,,Clear,290,2013-03-16 18:53:00
1:53 PM,68.0,19.4,16,29.86,10.0,WNW,10.4,16.1,N/A,,Clear,300,2013-03-16 19:53:00
2:53 PM,68.0,16.0,14,29.75,10.0,West,13.8,20.7,N/A,,Clear,280,2013-03-16 20:53:00
3:53 PM,68.0,17.1,14,29.71,10.0,West,11.5,19.6,N/A,,Partly Cloudy,280,2013-03-16 21:53:00
4:53 PM,66.0,12.9,13,29.70,10.0,West,18.4,-,N/A,,Clear,280,2013-03-16 22:53:00
5:53 PM,68.0,12.0,11,29.69,10.0,WNW,16.1,24.2,N/A,,Clear,300,2013-03-16 23:53:00
6:53 PM,64.0,12.0,13,29.70,10.0,NW,12.7,-,N/A,,Clear,310,2013-03-17 00:53:00
7:53 PM,57.9,14.0,18,29.72,10.0,WNW,11.5,-,N/A,,Clear,290,2013-03-17 01:53:00
8:53 PM,55.9,15.1,20,29.73,10.0,West,11.5,-,N/A,,Clear,280,2013-03-17 02:53:00
9:53 PM,51.1,16.0,25,29.74,10.0,West,3.5,-,N/A,,Clear,280,2013-03-17 03:53:00
10:53 PM,48.9,16.0,27,29.75,10.0,West,9.2,-,N/A,,Clear,270,2013-03-17 04:53:00
11:53 PM,46.9,16.0,29,29.73,10.0,Calm,Calm,-,N/A,,Clear,0,2013-03-17 05:53:00